User: anonymous   Login
Location: Sabalos
(43.2860°N, 0.1414°E)
Time: 09:33:41
(UTC+00:00)
Language:

NOSS 3-3 (C) - Orbit

View from above orbital plane
View from above orbital plane
View from above satellite
View from above satellite

Ground track
Ground track

The orbit data is extracted from the following two-line orbital elements,

1 28541U 05004C   20266.15848728 0.00000000  00000-0  00000-0 0    01
2 28541  63.4096  25.3215 0374768 358.0447   1.9553 13.40808366    06
Epoch (UTC): 22 September 2020 03:48:13
Eccentricity: 0.0374768
inclination: 63.4096°
perigee height: 826 km
apogee height: 1387 km
right ascension of ascending node: 25.3215°
argument of perigee: 358.0447°
revolutions per day: 13.40808366
mean anomaly at epoch: 1.9553°
orbit number at epoch: 0

The dashed part of the orbit path shows where the satellite is in the earth's shadow,  

DLR